GUNSMOKE-J 2 (49014 NORAD) Tracking and Keplerian Element Data

This shows tracking and keplerian element data for the satellite.

Feedback or suggestion? Click here.




ElementValue
Catalog49014
NameGUNSMOKE-J 2
Epoch Orbit1330
Epoch Day268.49812714
Epoch Year2021
RAAN222.8766
Inclination51.6122
Eccentricity0.0009358
Argument of Perigee215.5304
Mean Anonmoly144.5051
Mean Motion15.23612141
Decay Rate4.191E-05
L11 49014U 21013D 21268.49812714 .00004191 00000-0 18629-3 0 9994
L22 49014 51.6122 222.8766 0009358 215.5304 144.5051 15.23612141 13308

Live tracking and technical data element details for GUNSMOKE-J 2 (NORAD 49014). GUNSMOKE-J 2 can be tracked NOW for your location showing map with azimuth and elevation plus other details from your city location.

Track the satellite on the map from your city or location and see movement details for azimuth, elevation, latitude, longitude, range, height, and movement on the map or in text.







IsCatalogInMostPopularTable: catalog: 49014, numindb: 15
Update: records affected: 1



GetName: 49014 GUNSMOKE-J 2

Hit Count: updated at: Sun, 26 Sep 2021 16:07:22 GMT